Wind_Speed
11 5 9 4 5 6 4 6 3 5 6 24 23 26 22 21 8 11 9 11 13 15 14 14 13 12 11 11 12 12 12 13 13 13 13 15 15 15 14 15 16 17 17 18 19 20 20 19 18
14 4 16 7 5 6 4 5 16 17 15 19 22 17 26 16 23 15 14 13 16 17 13 12 12 11 10 11 11 11 12 13 12 12 13 13 13 13 13 14 14 15 16 18 19 19 19 17 15
24 14 12 4 4 4 5 14 20 25 18 13 8 19 8 10 18 11 14 16 16 17 13 12 11 10 10 11 11 11 11 12 12 11 12 12 11 11 11 13 14 14 14 17 18 18 16 14 12
16 17 13 10 17 11 5 15 16 23 17 9 16 11 8 25 10 17 15 17 16 16 13 12 10 10 10 11 11 11 11 11 11 11 9 10 10 10 12 13 13 14 15 16 17 15 13 10 6
27 15 7 9 18 9 12 14 16 15 8 11 12 10 10 24 18 22 20 19 18 16 14 13 12 12 11 11 11 11 10 11 11 10 9 9 10 11 12 12 12 11 13 13 14 13 11 8 3
12 9 6 10 6 4 18 17 19 15 15 16 11 11 10 20 22 23 21 20 16 15 14 13 13 13 13 12 11 10 10 10 10 9 8 9 8 9 11 10 9 8 9 10 12 11 9 6 5
32 11 5 6 5 7 5 12 17 14 18 21 13 5 10 22 24 21 18 18 15 13 10 12 12 12 13 12 11 10 10 10 10 9 8 8 8 8 7 8 8 7 7 7 9 11 9 5 4
25 8 4 5 4 7 7 19 25 19 20 4 9 6 8 16 23 23 21 17 15 12 11 11 10 9 10 11 9 9 9 9 9 8 7 6 6 6 7 7 7 7 6 6 6 9 10 7 4
13 6 6 6 3 8 15 21 31 27 36 38 25 27 18 16 22 22 20 17 13 15 13 10 10 5 5 6 8 8 9 8 8 7 6 5 5 5 6 7 7 6 4 4 5 7 8 10 9
9 5 4 7 12 10 23 24 13 16 29 30 33 28 24 26 23 26 24 24 22 19 17 14 10 7 5 7 3 3 4 6 7 6 5 3 4 5 5 4 4 4 5 3 2 5 7 9 10
6 6 14 18 27 30 27 30 22 25 19 24 25 27 25 25 27 29 27 25 24 21 19 17 14 12 8 5 4 4 6 4 2 3 3 2 2 3 3 4 5 5 4 2 2 3 7 12 10
22 19 16 20 25 28 24 30 32 33 27 29 28 26 25 27 28 27 26 22 21 21 21 20 17 13 12 8 6 5 1 5 4 6 6 5 7 8 8 6 4 5 5 4 2 6 7 10 7
23 19 26 32 36 35 36 27 24 29 30 26 24 25 26 25 25 25 23 23 21 22 21 20 16 16 14 12 10 7 5 5 3 6 9 9 11 10 11 11 10 8 6 5 4 7 8 7 6
17 29 24 26 27 23 28 15 17 20 25 26 25 26 25 25 25 26 26 27 26 24 24 22 20 17 14 14 11 11 9 8 7 7 8 11 10 13 14 14 13 12 12 11 10 9 9 10 11
35 23 11 5 14 22 28 11 5 21 25 24 23 22 22 23 25 27 27 27 26 27 27 26 23 20 17 14 13 12 14 13 13 14 12 9 11 14 17 21 17 15 14 15 15 15 15 15 14
7 5 6 5 3 5 5 5 9 22 22 22 20 18 18 18 19 20 22 23 23 24 26 26 24 20 19 17 14 13 13 14 14 14 14 14 11 9 12 16 21 22 18 16 18 18 18 18 19
7 4 7 2 2 3 6 7 12 21 26 21 18 17 15 14 13 13 15 17 18 21 23 26 26 21 18 17 16 15 14 15 16 14 15 14 14 13 11 9 13 20 24 25 16 20 19 17 20
4 7 4 4 1 6 8 5 10 18 25 20 16 14 13 10 9 8 10 12 13 18 22 25 28 21 18 17 16 16 17 18 18 19 18 16 14 13 12 11 10 12 16 18 28 25 16 16 18
7 7 7 2 4 7 4 6 7 15 21 18 16 14 11 9 8 6 7 11 13 17 21 26 26 23 21 18 19 19 20 19 19 19 20 20 19 16 14 14 14 13 13 13 14 18 23 30 31
8 12 4 1 1 6 4 4 4 12 20 22 18 12 8 9 8 6 6 8 13 17 19 25 25 23 24 22 20 18 17 18 18 18 19 20 21 21 20 18 16 16 16 13 13 13 16 28 33
5 7 5 7 4 8 7 4 4 5 9 16 13 8 8 8 7 7 6 8 11 15 17 22 25 23 23 22 18 17 16 17 18 20 19 20 20 20 20 21 20 19 16 17 16 16 14 14 19
4 2 3 9 5 5 3 3 6 5 6 13 14 9 9 9 6 5 8 7 9 12 14 18 21 22 22 22 21 21 20 20 19 19 18 17 17 18 19 20 20 21 20 16 16 16 18 18 17
4 2 4 3 3 4 2 2 5 8 7 8 15 11 14 8 5 6 6 6 8 10 11 14 18 22 21 24 23 22 22 20 17 15 16 17 17 17 19 19 20 22 21 20 20 19 18 19 21
6 5 7 5 3 2 6 8 4 7 14 5 14 16 14 9 7 3 5 7 8 9 8 12 16 19 22 23 25 25 24 21 20 18 17 17 18 17 18 20 21 21 22 22 21 20 20 18 17
5 6 3 3 3 5 2 4 7 7 6 18 22 19 14 9 3 3 3 4 7 8 8 12 13 16 20 21 25 26 26 26 22 20 19 17 18 19 19 20 22 22 22 21 21 20 20 19 16
2 4 5 6 3 3 2 4 5 4 15 22 24 20 14 10 7 5 3 6 8 8 7 10 12 14 17 20 23 25 27 26 29 24 20 18 18 17 18 19 19 20 21 22 21 19 19 19 18
3 2 3 6 3 2 3 3 6 5 9 21 22 20 17 14 11 8 5 7 9 10 10 10 12 13 15 19 22 24 25 26 28 28 22 19 18 18 17 18 19 19 19 19 20 20 20 19 20
1 5 4 3 2 3 4 4 5 6 7 11 18 20 18 15 13 10 9 11 11 12 13 15 14 15 16 18 20 22 25 25 26 28 25 20 18 18 17 17 18 19 19 19 19 19 20 20 19
2 1 5 4 3 4 1 5 5 8 9 11 23 21 19 16 14 13 13 14 13 15 16 18 18 18 18 18 18 20 22 24 26 28 28 23 20 19 18 17 17 18 19 19 19 19 19 19 19
2 3 4 4 5 1 2 5 7 8 18 18 18 15 14 16 14 14 15 16 17 19 19 21 21 22 22 21 20 20 22 24 25 27 28 26 21 21 20 19 18 18 19 19 21 21 21 21 21
Wind_Direction
17 336 344 49 55 57 54 48 81 68 66 78 77 77 76 53 25 111 120 124 113 108 105 100 92 83 69 59 62 69 70 71 79 82 85 92 92 92 90 97 101 101 106 107 108 106 103 98 93
36 60 60 61 73 77 34 353 69 41 47 78 60 51 50 56 68 94 99 107 108 105 101 99 94 85 72 62 63 70 71 68 69 81 88 91 93 92 94 103 105 110 111 114 114 111 105 97 89
67 87 54 67 62 78 94 79 77 41 47 51 85 44 40 344 54 87 101 103 103 101 100 96 89 79 69 67 66 64 66 72 69 69 88 92 94 97 104 109 111 115 119 122 122 119 111 101 84
98 65 61 72 69 43 89 113 114 64 61 355 111 63 64 56 61 101 99 99 96 92 89 84 80 71 64 64 66 65 62 62 66 71 71 88 87 84 91 106 109 116 124 129 131 127 119 106 91
75 68 65 84 69 52 27 149 132 128 152 46 82 100 66 77 94 104 97 93 93 90 82 74 66 58 53 57 61 63 61 60 57 62 73 65 84 87 87 97 106 119 129 136 142 134 128 108 61
74 77 85 76 88 64 39 92 112 109 141 104 68 76 52 65 103 99 103 101 99 93 82 78 69 68 62 54 51 54 56 55 54 56 59 69 71 85 89 88 95 112 130 139 149 147 140 108 60
99 94 66 86 72 55 27 64 59 80 59 47 108 78 63 70 91 101 102 103 100 94 89 76 71 72 70 59 55 51 50 49 49 47 52 59 73 70 63 87 92 99 115 137 151 159 158 141 84
107 82 102 22 55 60 35 77 58 48 39 29 64 63 73 69 89 100 104 103 98 93 84 75 76 75 69 58 62 62 56 48 43 44 45 52 63 62 68 59 77 96 108 126 154 175 181 184 171
81 75 111 151 70 115 81 88 71 79 76 71 75 77 79 77 89 97 101 98 89 81 71 73 64 71 52 55 60 60 62 59 54 48 43 39 53 57 79 72 54 55 78 122 153 174 192 201 201
72 85 61 87 100 94 75 73 85 89 75 73 75 74 75 72 68 68 65 60 54 51 44 48 48 56 47 49 32 5 42 47 51 57 56 66 43 35 24 22 44 39 43 46 144 172 180 187 185
63 95 100 90 102 99 87 69 82 84 63 70 82 79 70 59 55 55 57 53 49 46 47 40 33 33 24 30 21 315 348 343 339 1 4 299 258 292 331 354 349 12 360 30 123 169 175 163 160
99 79 102 107 104 94 83 93 76 77 88 92 85 76 65 56 53 52 51 48 45 42 40 43 46 42 33 17 3 349 317 287 292 287 274 274 274 276 291 292 311 341 338 330 216 163 161 180 195
87 92 94 99 102 99 99 85 94 89 97 90 79 64 58 53 50 49 50 49 46 43 37 35 34 34 31 28 30 15 354 345 322 271 288 279 261 272 278 281 274 272 289 309 285 226 220 217 241
124 106 99 105 105 105 95 85 103 99 100 86 76 69 62 60 58 56 50 48 44 42 39 38 35 30 27 29 26 31 31 23 350 328 296 284 269 253 261 271 275 273 261 255 250 253 261 256 256
120 107 79 63 107 115 94 41 74 117 98 91 85 80 72 64 56 53 47 44 39 38 35 34 35 33 32 34 29 20 18 12 16 20 10 325 297 278 266 256 262 261 259 259 257 250 254 259 259
100 52 101 223 105 37 98 120 126 127 104 111 106 94 80 75 66 59 51 44 39 32 30 29 29 30 33 33 29 24 16 14 12 11 11 13 11 324 290 277 270 260 256 255 253 258 261 261 255
27 128 109 177 263 134 110 148 162 138 121 126 121 110 94 84 77 65 55 47 40 34 30 25 22 25 32 37 40 38 31 25 22 17 17 13 9 6 355 332 277 263 261 263 254 235 242 247 260
142 108 68 120 9 72 88 114 163 157 128 136 127 118 114 107 102 90 69 58 43 33 25 21 15 22 27 40 46 44 41 37 30 27 24 15 8 1 355 347 330 320 275 272 263 271 224 248 257
109 100 114 43 106 72 55 133 168 150 134 144 143 142 138 124 120 108 77 64 45 35 28 24 21 23 28 30 34 38 39 36 35 31 23 19 14 8 356 349 346 333 330 310 297 268 213 258 254
103 114 97 51 302 93 127 163 197 179 164 163 159 154 135 115 97 87 78 55 37 35 34 25 21 22 26 27 30 31 34 36 34 31 25 20 15 10 6 358 348 340 339 330 327 304 263 251 263
36 125 183 147 104 51 101 348 221 218 202 173 167 142 134 131 113 79 67 62 32 32 32 22 17 18 20 22 22 25 31 29 28 26 24 18 14 10 9 8 1 353 339 337 335 330 335 304 282
91 345 94 123 103 169 173 263 233 198 204 196 178 163 152 144 119 84 87 52 31 31 25 18 18 18 20 17 18 23 25 23 20 12 12 13 7 6 5 9 7 2 356 341 331 320 313 318 316
164 93 80 106 94 96 182 20 284 157 220 212 194 165 156 147 121 96 59 33 24 18 16 13 14 14 16 16 14 13 16 18 16 11 7 7 9 2 357 0 2 2 2 356 340 323 311 301 308
138 83 45 50 67 343 208 169 258 193 214 191 191 168 163 160 145 74 12 357 351 353 3 1 3 5 9 9 10 11 10 7 3 4 5 3 1 1 357 355 355 355 354 0 358 350 338 324 305
73 70 23 13 5 222 82 147 249 227 201 185 176 172 173 168 190 315 289 313 329 338 344 351 352 354 358 359 360 3 4 6 360 359 357 357 356 356 354 353 350 352 352 353 349 350 351 344 332
81 136 147 195 199 267 287 236 258 297 211 184 175 175 179 192 210 223 260 316 334 341 326 332 336 338 344 348 350 353 357 358 360 352 351 353 353 351 348 347 347 346 348 347 348 347 347 346 340
181 73 161 107 12 37 265 297 347 61 100 154 167 178 191 203 210 236 273 312 315 318 330 321 316 319 328 336 342 342 342 348 350 350 345 344 346 347 346 343 343 343 344 343 343 342 345 348 341
116 137 69 1 120 276 292 274 231 189 180 171 179 193 203 209 219 244 287 309 305 296 300 310 314 312 317 326 334 330 333 335 339 345 341 336 337 338 337 338 338 340 341 340 340 340 341 345 344
78 63 55 113 124 166 233 260 215 203 181 184 195 204 211 222 241 263 284 291 286 285 288 292 295 301 304 309 322 324 326 332 332 338 339 330 330 331 328 328 330 331 331 331 333 334 334 336 341
86 156 141 120 248 239 144 275 343 235 186 189 199 219 244 245 266 275 280 282 278 282 286 288 291 292 295 292 300 314 319 327 330 330 332 331 323 325 322 321 322 323 322 320 320 322 325 328 329
Height
1513 1512 1512 1513 1528 1533 1556 1556 1548 1551 1553 1558 1557 1557 1562 1563 1564 1580 1579 1580 1581 1582 1583 1584 1584 1584 1583 1582 1581 1580 1579 1577 1576 1575 1575 1574 1574 1573 1573 1573 1573 1573 1573 1573 1573 1573 1574 1574 1574
1512 1512 1512 1516 1546 1554 1564 1556 1560 1562 1563 1561 1559 1564 1560 1572 1575 1579 1582 1583 1583 1584 1586 1587 1586 1586 1585 1584 1583 1582 1581 1580 1579 1578 1577 1577 1576 1575 1575 1575 1576 1576 1576 1576 1577 1577 1577 1577 1577
1513 1512 1516 1534 1559 1565 1568 1568 1568 1568 1562 1564 1567 1569 1574 1583 1582 1585 1587 1587 1587 1586 1589 1589 1588 1587 1587 1586 1585 1584 1583 1582 1581 1581 1580 1579 1578 1577 1577 1577 1578 1578 1579 1579 1580 1580 1580 1581 1581
1514 1519 1533 1550 1564 1568 1567 1571 1574 1570 1565 1568 1570 1574 1583 1585 1587 1589 1590 1589 1590 1590 1591 1591 1590 1589 1588 1588 1587 1585 1585 1584 1583 1582 1582 1581 1580 1580 1580 1580 1580 1581 1581 1582 1583 1583 1583 1584 1583
1518 1530 1552 1564 1571 1573 1572 1571 1572 1579 1582 1578 1577 1580 1586 1590 1592 1591 1592 1593 1593 1593 1593 1593 1592 1591 1590 1589 1588 1587 1586 1586 1585 1584 1584 1584 1583 1582 1583 1583 1583 1583 1583 1584 1585 1585 1586 1586 1585
1523 1540 1564 1575 1578 1577 1576 1577 1578 1579 1580 1579 1582 1583 1595 1596 1597 1594 1594 1595 1595 1595 1595 1594 1594 1593 1592 1591 1591 1589 1588 1588 1587 1586 1586 1586 1586 1585 1584 1585 1585 1585 1585 1586 1586 1588 1588 1588 1587
1533 1546 1574 1578 1580 1579 1582 1582 1584 1584 1584 1581 1586 1591 1600 1597 1598 1599 1599 1597 1596 1596 1597 1596 1595 1594 1593 1593 1592 1591 1590 1589 1589 1588 1588 1588 1588 1588 1588 1587 1587 1587 1588 1588 1588 1589 1589 1590 1589
1535 1550 1577 1582 1587 1592 1586 1584 1585 1581 1588 1586 1588 1597 1604 1604 1602 1601 1600 1599 1597 1597 1597 1597 1596 1596 1595 1594 1593 1592 1591 1590 1590 1590 1590 1589 1589 1589 1589 1589 1588 1588 1588 1589 1589 1590 1590 1590 1590
1540 1562 1583 1583 1582 1590 1591 1585 1589 1593 1590 1591 1598 1600 1608 1607 1604 1603 1602 1600 1599 1598 1599 1598 1597 1596 1596 1596 1595 1594 1592 1591 1590 1591 1591 1591 1591 1590 1590 1590 1590 1590 1589 1589 1590 1590 1590 1591 1591
1545 1576 1580 1579 1582 1589 1591 1589 1592 1598 1600 1603 1605 1608 1610 1609 1607 1602 1601 1601 1602 1600 1601 1598 1598 1597 1597 1596 1595 1595 1594 1593 1592 1591 1591 1591 1592 1592 1592 1591 1590 1590 1590 1590 1590 1590 1590 1591 1592
1560 1577 1583 1587 1589 1592 1594 1597 1602 1600 1604 1611 1612 1614 1613 1610 1609 1606 1606 1606 1606 1605 1603 1600 1600 1598 1597 1596 1596 1595 1594 1593 1593 1593 1592 1592 1591 1591 1591 1591 1591 1590 1590 1590 1590 1590 1590 1591 1592
1569 1584 1586 1593 1595 1596 1599 1605 1609 1610 1617 1618 1617 1616 1614 1612 1612 1611 1608 1609 1609 1607 1605 1604 1602 1601 1599 1597 1596 1594 1593 1593 1592 1592 1592 1592 1591 1591 1591 1590 1590 1591 1590 1590 1590 1590 1591 1592 1592
1576 1590 1594 1598 1601 1602 1604 1609 1614 1620 1622 1622 1621 1619 1617 1616 1615 1614 1614 1613 1611 1609 1608 1606 1605 1603 1600 1598 1596 1594 1593 1592 1591 1591 1591 1589 1590 1591 1590 1589 1589 1588 1589 1590 1590 1590 1590 1591 1591
1590 1594 1600 1604 1605 1609 1608 1617 1615 1628 1625 1624 1623 1622 1622 1621 1621 1620 1618 1616 1615 1614 1613 1610 1607 1604 1602 1600 1597 1595 1593 1592 1591 1589 1588 1588 1587 1587 1588 1588 1588 1587 1586 1586 1587 1588 1589 1589 1589
1591 1597 1605 1606 1605 1612 1613 1625 1628 1628 1626 1626 1626 1626 1626 1626 1624 1622 1622 1620 1619 1618 1617 1614 1611 1607 1604 1601 1599 1596 1595 1593 1591 1590 1588 1586 1584 1585 1584 1585 1585 1584 1584 1584 1584 1584 1584 1585 1585
1597 1602 1614 1611 1609 1612 1613 1636 1631 1631 1626 1629 1628 1628 1627 1626 1627 1625 1624 1624 1623 1623 1621 1619 1614 1611 1606 1603 1600 1598 1595 1593 1591 1590 1588 1586 1584 1582 1580 1580 1580 1580 1580 1580 1580 1580 1582 1582 1582
1604 1615 1614 1614 1609 1610 1613 1632 1631 1631 1627 1631 1631 1629 1630 1629 1629 1629 1626 1625 1626 1625 1623 1619 1617 1612 1608 1606 1602 1600 1596 1594 1592 1590 1588 1586 1583 1581 1580 1577 1575 1575 1575 1575 1573 1571 1574 1577 1580
1607 1613 1613 1615 1613 1613 1620 1629 1631 1632 1628 1630 1630 1631 1631 1631 1631 1631 1629 1628 1628 1626 1623 1620 1617 1612 1609 1607 1604 1601 1598 1595 1593 1590 1587 1585 1583 1581 1579 1576 1574 1572 1570 1570 1568 1567 1567 1572 1572
1602 1609 1615 1615 1615 1620 1627 1631 1631 1632 1629 1631 1631 1631 1632 1631 1631 1631 1629 1628 1627 1625 1624 1620 1616 1612 1609 1606 1603 1601 1599 1597 1594 1591 1588 1585 1583 1581 1578 1576 1573 1571 1569 1566 1565 1563 1563 1565 1568
1603 1614 1619 1618 1617 1620 1630 1631 1630 1630 1628 1628 1629 1631 1631 1630 1630 1631 1630 1629 1627 1625 1624 1621 1617 1614 1611 1608 1606 1604 1602 1599 1596 1594 1591 1587 1584 1581 1579 1575 1573 1570 1568 1566 1563 1560 1559 1561 1565
1613 1615 1615 1619 1620 1624 1630 1638 1634 1632 1632 1631 1630 1631 1631 1631 1632 1631 1630 1629 1627 1626 1625 1622 1619 1616 1613 1610 1608 1606 1603 1600 1596 1594 1591 1588 1586 1583 1579 1576 1573 1570 1568 1565 1564 1562 1560 1559 1560
1614 1612 1611 1618 1625 1639 1627 1641 1632 1630 1630 1629 1628 1629 1630 1632 1632 1631 1630 1629 1628 1626 1624 1622 1620 1618 1615 1612 1609 1605 1603 1600 1598 1596 1593 1591 1587 1584 1580 1577 1574 1571 1567 1565 1563 1562 1561 1559 1555
1613 1612 1613 1616 1625 1630 1631 1639 1629 1627 1630 1627 1626 1627 1629 1631 1631 1630 1630 1629 1628 1626 1624 1622 1620 1618 1617 1614 1610 1606 1604 1602 1600 1598 1594 1592 1588 1584 1580 1577 1574 1571 1568 1565 1562 1560 1558 1557 1555
1609 1613 1621 1627 1632 1645 1624 1631 1629 1628 1617 1622 1624 1626 1627 1629 1630 1630 1630 1629 1628 1625 1624 1623 1621 1618 1616 1614 1611 1608 1605 1602 1600 1597 1595 1591 1588 1584 1580 1576 1574 1571 1568 1564 1561 1558 1555 1553 1552
1611 1623 1655 1645 1657 1645 1621 1632 1616 1613 1611 1614 1620 1625 1628 1629 1629 1630 1630 1629 1627 1625 1623 1621 1620 1618 1616 1614 1611 1609 1606 1603 1600 1596 1593 1591 1587 1583 1580 1576 1573 1570 1567 1564 1560 1557 1554 1551 1548
1615 1620 1647 1641 1649 1632 1619 1624 1621 1610 1608 1611 1618 1623 1627 1629 1629 1629 1628 1627 1625 1624 1622 1621 1619 1617 1615 1612 1610 1608 1605 1602 1599 1596 1593 1589 1586 1583 1579 1576 1574 1570 1567 1563 1560 1557 1553 1550 1547
1617 1630 1624 1636 1643 1640 1627 1618 1615 1611 1612 1615 1618 1622 1624 1626 1627 1626 1625 1624 1623 1623 1621 1619 1617 1616 1613 1611 1609 1607 1604 1601 1598 1594 1591 1588 1585 1581 1578 1575 1572 1569 1566 1562 1559 1556 1552 1549 1545
1614 1621 1637 1654 1656 1655 1633 1623 1628 1615 1616 1617 1619 1619 1620 1622 1623 1623 1622 1621 1620 1620 1619 1617 1615 1613 1612 1610 1608 1605 1602 1599 1596 1593 1590 1586 1582 1579 1576 1574 1570 1567 1564 1561 1558 1555 1551 1548 1545
1622 1627 1632 1638 1644 1648 1647 1625 1611 1609 1610 1613 1615 1616 1617 1618 1619 1621 1620 1619 1618 1617 1616 1614 1612 1611 1609 1607 1605 1602 1600 1597 1594 1590 1587 1583 1580 1577 1574 1571 1568 1564 1561 1559 1556 1553 1550 1546 1543
1615 1619 1624 1651 1649 1647 1646 1629 1607 1604 1607 1611 1614 1615 1616 1616 1616 1617 1617 1617 1615 1613 1612 1610 1609 1607 1605 1603 1600 1598 1596 1593 1590 1586 1583 1580 1577 1574 1571 1568 1566 1562 1559 1556 1553 1550 1547 1544 1540